IGO361 VAPO-VOBL

Flight info

Callsign IGO361
Flight time N/A
Altitude 39000
Route AVKOR2A AVKOR W128 EPKOS Q9 RIKBU RIKBU7F
Aircraft A20N/M-SDE2E3FGHIRWXY/LB1

Departure

Time 2026-05-01 14:52
Airport Pune International Airport (VAPO)

Arrival

Time N/A
Airport Kempegowda International Airport Bengaluru (VOBL)
Time Latitude Longitude Altitude Speed Heading
2026-05-01 14:20 18.57996 73.90876 1927 ft 0 kts 190°
2026-05-01 14:37 18.57997 73.90876 1926 ft 2 kts 190°
2026-05-01 14:37 18.58015 73.90879 1927 ft 3 kts 190°
2026-05-01 14:38 18.58034 73.90883 1927 ft 3 kts 190°
2026-05-01 14:38 18.58053 73.90882 1927 ft 3 kts 154°
2026-05-01 14:38 18.58068 73.90869 1926 ft 3 kts 121°
2026-05-01 14:38 18.58073 73.90850 1926 ft 3 kts 80°
2026-05-01 14:39 18.58070 73.90830 1926 ft 3 kts 97°
2026-05-01 14:39 18.58071 73.90828 1926 ft 0 kts 99°
2026-05-01 14:41 18.58070 73.90829 1926 ft 0 kts 99°
2026-05-01 14:42 18.58068 73.90842 1926 ft 3 kts 100°
2026-05-01 14:42 18.58062 73.90877 1927 ft 6 kts 97°
2026-05-01 14:42 18.58081 73.90917 1927 ft 5 kts 33°
2026-05-01 14:42 18.58102 73.90926 1927 ft 2 kts 12°
2026-05-01 14:43 18.58119 73.90925 1927 ft 4 kts 344°
2026-05-01 14:43 18.58133 73.90899 1927 ft 5 kts 279°
2026-05-01 14:43 18.58137 73.90853 1926 ft 7 kts 272°
2026-05-01 14:43 18.58139 73.90792 1926 ft 9 kts 272°
2026-05-01 14:44 18.58144 73.90722 1926 ft 11 kts 275°
2026-05-01 14:44 18.58210 73.90661 1925 ft 7 kts
2026-05-01 14:44 18.58267 73.90656 1925 ft 9 kts 348°
2026-05-01 14:45 18.58306 73.90671 1925 ft 4 kts 51°
2026-05-01 14:45 18.58308 73.90692 1926 ft 0 kts 94°
2026-05-01 14:51 18.58308 73.90693 1926 ft 4 kts 94°
2026-05-01 14:51 18.58239 73.91773 1930 ft 146 kts 94°
2026-05-01 14:52 18.58091 73.94373 3103 ft 174 kts 93°
2026-05-01 14:52 18.58029 73.95601 3836 ft 171 kts 95°
2026-05-01 14:52 18.57098 73.98156 4278 ft 215 kts 147°
2026-05-01 14:53 18.55599 73.98571 4602 ft 240 kts 187°
2026-05-01 14:53 18.54041 73.97840 5047 ft 257 kts 222°
2026-05-01 14:53 18.52768 73.96463 5796 ft 264 kts 229°
2026-05-01 14:53 18.51575 73.95002 6785 ft 260 kts 230°
2026-05-01 14:54 18.50435 73.93550 7779 ft 256 kts 231°
2026-05-01 14:54 18.49300 73.92085 8510 ft 263 kts 231°
2026-05-01 14:54 18.48119 73.90555 9017 ft 277 kts 231°
2026-05-01 14:54 18.46875 73.88942 9600 ft 286 kts 231°
2026-05-01 14:55 18.45624 73.87320 10478 ft 283 kts 231°
2026-05-01 14:55 18.44395 73.85731 11419 ft 278 kts 231°
2026-05-01 14:55 18.43171 73.84149 12121 ft 282 kts 231°
2026-05-01 14:55 18.41904 73.82516 12558 ft 295 kts 231°
2026-05-01 14:56 18.40578 73.80805 12996 ft 306 kts 231°
2026-05-01 14:56 18.39225 73.79061 13698 ft 306 kts 231°
2026-05-01 14:56 18.37888 73.77342 14578 ft 301 kts 231°
2026-05-01 14:56 18.36568 73.75645 15328 ft 300 kts 231°
2026-05-01 14:57 18.35229 73.73927 15736 ft 310 kts 231°
2026-05-01 14:57 18.32387 73.70277 16505 ft 329 kts 231°
2026-05-01 14:57 18.30944 73.68426 17282 ft 323 kts 231°
2026-05-01 14:58 18.29532 73.66615 18106 ft 318 kts 231°
2026-05-01 14:58 18.28170 73.64869 18644 ft 321 kts 231°
2026-05-01 14:58 18.26731 73.63024 18876 ft 333 kts 231°
2026-05-01 14:58 18.25228 73.61097 19071 ft 346 kts 231°
2026-05-01 14:59 18.23691 73.59127 19553 ft 348 kts 231°
2026-05-01 14:59 18.22169 73.57177 20327 ft 341 kts 231°
2026-05-01 14:59 18.20677 73.55266 21071 ft 336 kts 231°
2026-05-01 14:59 18.19191 73.53364 21503 ft 340 kts 231°
2026-05-01 15:00 18.16084 73.49389 21903 ft 361 kts 231°
2026-05-01 15:00 18.14485 73.47343 22407 ft 361 kts 231°
2026-05-01 15:00 18.12902 73.45318 23094 ft 355 kts 231°
2026-05-01 15:01 18.11345 73.43325 23686 ft 353 kts 231°
2026-05-01 15:01 18.09775 73.41318 24014 ft 358 kts 231°
2026-05-01 15:01 18.08173 73.39268 24144 ft 369 kts 231°
2026-05-01 15:01 18.06634 73.37295 24287 ft 373 kts 232°
2026-05-01 15:02 18.05551 73.35814 24306 ft 368 kts 233°
2026-05-01 15:02 18.04190 73.33824 24106 ft 369 kts 235°
2026-05-01 15:03 18.02697 73.31540 23604 ft 377 kts 236°
2026-05-01 15:03 18.01270 73.29306 23162 ft 383 kts 236°
2026-05-01 15:03 17.99797 73.26975 22989 ft 381 kts 237°
2026-05-01 15:03 17.99094 73.25858 23007 ft 377 kts 237°